SWA1879 KBNA-KOMA

Flight info

Callsign SWA1879
Flight time 1h 33m
Altitude 34000
Route PARDN4 NAKIY SLVER DIXEE LMN MARWI4
Aircraft B737/M-SDE2E3GIJ4RWZ/LB1D1

Departure

Time 2026-04-26 14:52
Airport Nashville International Airport (KBNA)

Arrival

Time 2026-04-26 16:25
Airport Eppley Airfield (KOMA)
Time Latitude Longitude Altitude Speed Heading
2026-04-26 14:25 36.12772 -86.66861 568 ft 0 kts 312°
2026-04-26 14:37 36.12771 -86.66860 568 ft 1 kts 312°
2026-04-26 14:37 36.12757 -86.66837 568 ft 4 kts 294°
2026-04-26 14:38 36.12752 -86.66807 572 ft 4 kts 255°
2026-04-26 14:38 36.12760 -86.66788 568 ft 1 kts 220°
2026-04-26 14:38 36.12762 -86.66785 568 ft 0 kts 220°
2026-04-26 14:41 36.12760 -86.66787 571 ft 3 kts 220°
2026-04-26 14:41 36.12735 -86.66814 572 ft 6 kts 220°
2026-04-26 14:41 36.12712 -86.66838 569 ft 3 kts 221°
2026-04-26 14:41 36.12707 -86.66843 569 ft 0 kts 221°
2026-04-26 14:44 36.12706 -86.66844 569 ft 3 kts 221°
2026-04-26 14:44 36.12681 -86.66872 575 ft 6 kts 221°
2026-04-26 14:44 36.12644 -86.66906 571 ft 8 kts 213°
2026-04-26 14:44 36.12588 -86.66933 570 ft 10 kts 160°
2026-04-26 14:45 36.12525 -86.66928 572 ft 10 kts 208°
2026-04-26 14:45 36.12484 -86.66954 575 ft 10 kts 198°
2026-04-26 14:45 36.12397 -86.66891 573 ft 14 kts 132°
2026-04-26 14:45 36.12342 -86.66777 570 ft 16 kts 109°
2026-04-26 14:46 36.12308 -86.66649 572 ft 16 kts 108°
2026-04-26 14:46 36.12271 -86.66533 571 ft 13 kts 139°
2026-04-26 14:46 36.12195 -86.66542 573 ft 10 kts 198°
2026-04-26 14:46 36.12132 -86.66567 570 ft 8 kts 197°
2026-04-26 14:47 36.12080 -86.66588 579 ft 9 kts 199°
2026-04-26 14:47 36.12022 -86.66609 575 ft 9 kts 198°
2026-04-26 14:47 36.11962 -86.66635 581 ft 11 kts 198°
2026-04-26 14:47 36.11876 -86.66669 579 ft 15 kts 198°
2026-04-26 14:48 36.11773 -86.66711 583 ft 16 kts 198°
2026-04-26 14:48 36.11664 -86.66755 586 ft 16 kts 198°
2026-04-26 14:48 36.11559 -86.66796 588 ft 16 kts 198°
2026-04-26 14:48 36.11458 -86.66836 591 ft 15 kts 198°
2026-04-26 14:49 36.11368 -86.66873 591 ft 12 kts 198°
2026-04-26 14:49 36.11318 -86.66873 590 ft 2 kts 141°
2026-04-26 14:49 36.11316 -86.66871 590 ft 0 kts 134°
2026-04-26 14:50 36.11316 -86.66870 590 ft 1 kts 134°
2026-04-26 14:50 36.11305 -86.66847 590 ft 6 kts 115°
2026-04-26 14:50 36.11288 -86.66783 589 ft 6 kts 99°
2026-04-26 14:51 36.11323 -86.66749 590 ft 13 kts 20°
2026-04-26 14:51 36.11646 -86.66619 588 ft 85 kts 18°
2026-04-26 14:51 36.12422 -86.66308 569 ft 146 kts 18°
2026-04-26 14:51 36.13481 -86.65896 937 ft 164 kts 18°
2026-04-26 14:52 36.14576 -86.65465 1620 ft 166 kts 18°
2026-04-26 14:52 36.15771 -86.65133 2091 ft 195 kts 359°
2026-04-26 14:52 36.17183 -86.65639 2396 ft 230 kts 340°
2026-04-26 14:52 36.18765 -86.66434 2799 ft 257 kts 339°
2026-04-26 14:53 36.20438 -86.67287 3669 ft 263 kts 339°
2026-04-26 14:53 36.22134 -86.68152 4650 ft 264 kts 339°
2026-04-26 14:53 36.23832 -86.69016 5643 ft 266 kts 339°
2026-04-26 14:53 36.25564 -86.69895 6466 ft 272 kts 340°
2026-04-26 14:54 36.27230 -86.71024 6828 ft 277 kts 320°
2026-04-26 14:54 36.28354 -86.72971 6950 ft 286 kts 291°
2026-04-26 14:54 36.28634 -86.75430 7406 ft 294 kts 267°
2026-04-26 14:54 36.28338 -86.77930 8468 ft 294 kts 259°
2026-04-26 14:55 36.27915 -86.80417 9519 ft 297 kts 258°
2026-04-26 14:55 36.27481 -86.82951 10402 ft 306 kts 258°
2026-04-26 14:55 36.27112 -86.85662 10730 ft 334 kts 266°
2026-04-26 14:55 36.27041 -86.88641 11055 ft 357 kts 271°
2026-04-26 14:56 36.27082 -86.91750 11872 ft 363 kts 272°
2026-04-26 14:56 36.27133 -86.94883 12910 ft 363 kts 272°
2026-04-26 14:56 36.27167 -86.97993 14050 ft 360 kts 272°
2026-04-26 14:56 36.27184 -87.01110 14928 ft 364 kts 271°
2026-04-26 14:57 36.27189 -87.04275 15778 ft 370 kts 271°
2026-04-26 14:57 36.27184 -87.07472 16713 ft 372 kts 271°
2026-04-26 14:57 36.27175 -87.10688 17667 ft 375 kts 271°
2026-04-26 14:57 36.27167 -87.13932 18545 ft 378 kts 271°
2026-04-26 14:58 36.27154 -87.17200 19299 ft 382 kts 271°
2026-04-26 14:58 36.27140 -87.20467 20018 ft 386 kts 272°
2026-04-26 14:58 36.27232 -87.23841 20755 ft 388 kts 279°
2026-04-26 14:58 36.27712 -87.27134 21492 ft 390 kts 284°
2026-04-26 14:59 36.28288 -87.30381 22204 ft 393 kts 285°
2026-04-26 14:59 36.28882 -87.33698 22913 ft 396 kts 285°
2026-04-26 14:59 36.29459 -87.37043 23658 ft 398 kts 284°
2026-04-26 14:59 36.29838 -87.39318 24063 ft 399 kts 284°
2026-04-26 15:00 36.30564 -87.43810 24865 ft 402 kts 284°
2026-04-26 15:00 36.31108 -87.47217 25458 ft 404 kts 284°
2026-04-26 15:00 36.31754 -87.50603 26029 ft 404 kts 292°
2026-04-26 15:00 36.33009 -87.53690 26592 ft 402 kts 301°
2026-04-26 15:01 36.34418 -87.56706 27103 ft 405 kts 301°
2026-04-26 15:01 36.35820 -87.59752 27602 ft 408 kts 301°
2026-04-26 15:01 36.37219 -87.62820 28138 ft 410 kts 300°
2026-04-26 15:01 36.38619 -87.65910 28664 ft 411 kts 300°
2026-04-26 15:02 36.40017 -87.69014 29149 ft 413 kts 300°
2026-04-26 15:02 36.41417 -87.72129 29709 ft 413 kts 300°
2026-04-26 15:02 36.42806 -87.75228 30399 ft 409 kts 300°
2026-04-26 15:02 36.44176 -87.78286 31144 ft 401 kts 299°
2026-04-26 15:03 36.45518 -87.81285 31946 ft 393 kts 299°
2026-04-26 15:03 36.46833 -87.84223 32738 ft 385 kts 298°
2026-04-26 15:03 36.48122 -87.87107 33444 ft 379 kts 298°
2026-04-26 15:03 36.49402 -87.89973 33890 ft 381 kts 298°
2026-04-26 15:04 36.50694 -87.92870 34004 ft 387 kts 298°
2026-04-26 15:04 36.53317 -87.98759 34011 ft 389 kts 298°
2026-04-26 15:05 36.55911 -88.04588 34003 ft 383 kts 298°
2026-04-26 15:05 36.58488 -88.10393 34000 ft 384 kts 297°
2026-04-26 15:06 36.61067 -88.16211 34029 ft 384 kts 297°
2026-04-26 15:06 36.63647 -88.22040 34034 ft 385 kts 297°
2026-04-26 15:07 36.68426 -88.30101 34031 ft 388 kts 307°
2026-04-26 15:07 36.71966 -88.35181 34037 ft 388 kts 307°
2026-04-26 15:08 36.75480 -88.40285 34040 ft 388 kts 307°
2026-04-26 15:08 36.78975 -88.45425 34033 ft 389 kts 307°
2026-04-26 15:09 36.82462 -88.50587 34018 ft 389 kts 306°
2026-04-26 15:09 36.85950 -88.55763 34011 ft 390 kts 306°
2026-04-26 15:10 36.88847 -88.60071 34010 ft 389 kts 306°
2026-04-26 15:10 36.92914 -88.66128 34020 ft 390 kts 306°
2026-04-26 15:11 36.96375 -88.71290 34024 ft 390 kts 306°
2026-04-26 15:11 36.99854 -88.76489 34035 ft 390 kts 307°
2026-04-26 15:12 37.03340 -88.81705 34036 ft 391 kts 307°
2026-04-26 15:12 37.06829 -88.86934 34017 ft 392 kts 306°
2026-04-26 15:13 37.10318 -88.92171 34025 ft 392 kts 306°
2026-04-26 15:13 37.13809 -88.97420 34017 ft 392 kts 306°
2026-04-26 15:14 37.17301 -89.02677 34013 ft 392 kts 306°
2026-04-26 15:14 37.20795 -89.07947 34020 ft 393 kts 306°
2026-04-26 15:15 37.24286 -89.13220 34031 ft 393 kts 307°
2026-04-26 15:15 37.27780 -89.18508 33997 ft 394 kts 307°
2026-04-26 15:16 37.31279 -89.23810 33988 ft 394 kts 306°
2026-04-26 15:16 37.34776 -89.29116 33999 ft 394 kts 306°
2026-04-26 15:17 37.37682 -89.33534 34003 ft 395 kts 306°
2026-04-26 15:17 37.41772 -89.39763 33996 ft 395 kts 306°
2026-04-26 15:18 37.45275 -89.45104 34003 ft 396 kts 306°
2026-04-26 15:18 37.48777 -89.50455 34013 ft 396 kts 306°
2026-04-26 15:19 37.52281 -89.55817 34011 ft 397 kts 306°
2026-04-26 15:19 37.55785 -89.61189 34019 ft 397 kts 306°
2026-04-26 15:20 37.59266 -89.66534 34018 ft 397 kts 306°
2026-04-26 15:20 37.62769 -89.71920 34026 ft 397 kts 306°
2026-04-26 15:21 37.65705 -89.76441 34027 ft 397 kts 306°
2026-04-26 15:21 37.69205 -89.81839 34026 ft 398 kts 306°
2026-04-26 15:22 37.72707 -89.87249 34041 ft 397 kts 306°
2026-04-26 15:22 37.76180 -89.92624 34030 ft 397 kts 306°
2026-04-26 15:23 37.79673 -89.98038 34026 ft 397 kts 306°
2026-04-26 15:23 37.83164 -90.03458 34034 ft 398 kts 306°
2026-04-26 15:24 37.86654 -90.08887 34041 ft 398 kts 306°
2026-04-26 15:24 37.90143 -90.14322 34039 ft 398 kts 305°
2026-04-26 15:25 37.93634 -90.19770 34041 ft 399 kts 305°
2026-04-26 15:25 37.97127 -90.25230 34043 ft 399 kts 306°
2026-04-26 15:26 38.00621 -90.30697 34028 ft 399 kts 306°
2026-04-26 15:26 38.04138 -90.36150 34031 ft 400 kts 306°
2026-04-26 15:27 38.07667 -90.41609 34032 ft 400 kts 305°
2026-04-26 15:27 38.11194 -90.47078 34024 ft 401 kts 305°
2026-04-26 15:28 38.14727 -90.52571 34021 ft 402 kts 305°
2026-04-26 15:28 38.18260 -90.58076 34021 ft 402 kts 305°
2026-04-26 15:29 38.21793 -90.63589 34020 ft 402 kts 306°
2026-04-26 15:30 38.28866 -90.74652 34010 ft 403 kts 306°
2026-04-26 15:30 38.32373 -90.80152 34003 ft 403 kts 305°
2026-04-26 15:31 38.37672 -90.88484 33998 ft 404 kts 305°
2026-04-26 15:32 38.42395 -90.95925 34008 ft 404 kts 305°
2026-04-26 15:32 38.46498 -91.02405 34015 ft 404 kts 305°
2026-04-26 15:33 38.50028 -91.07989 34021 ft 404 kts 305°
2026-04-26 15:33 38.53556 -91.13580 34011 ft 404 kts 305°
2026-04-26 15:34 38.57077 -91.19170 34002 ft 404 kts 304°
2026-04-26 15:34 38.60848 -91.24524 34014 ft 406 kts 309°
2026-04-26 15:35 38.64815 -91.29684 34017 ft 407 kts 310°
2026-04-26 15:35 38.68799 -91.34862 33993 ft 408 kts 310°
2026-04-26 15:36 38.72767 -91.40060 33982 ft 408 kts 310°
2026-04-26 15:36 38.76728 -91.45276 33986 ft 408 kts 309°
2026-04-26 15:37 38.80686 -91.50503 33981 ft 409 kts 309°
2026-04-26 15:37 38.84614 -91.55698 33979 ft 408 kts 309°
2026-04-26 15:38 38.88563 -91.60932 34014 ft 408 kts 309°
2026-04-26 15:38 38.92520 -91.66185 34000 ft 409 kts 309°
2026-04-26 15:39 38.96479 -91.71450 33997 ft 410 kts 309°
2026-04-26 15:39 38.99771 -91.75834 33999 ft 410 kts 309°
2026-04-26 15:40 39.04402 -91.82012 34008 ft 410 kts 309°
2026-04-26 15:40 39.08355 -91.87295 34008 ft 410 kts 309°
2026-04-26 15:41 39.12313 -91.92593 33993 ft 411 kts 309°
2026-04-26 15:41 39.16274 -91.97907 33981 ft 411 kts 309°
2026-04-26 15:42 39.20234 -92.03227 33978 ft 411 kts 309°
2026-04-26 15:42 39.24193 -92.08553 33978 ft 411 kts 309°
2026-04-26 15:43 39.28151 -92.13889 33976 ft 411 kts 309°
2026-04-26 15:44 39.34055 -92.21867 33995 ft 411 kts 309°
2026-04-26 15:44 39.39980 -92.29895 34005 ft 412 kts 309°
2026-04-26 15:45 39.45911 -92.37951 34005 ft 412 kts 309°
2026-04-26 15:46 39.51840 -92.46027 34000 ft 413 kts 309°
2026-04-26 15:46 39.55131 -92.50518 33998 ft 413 kts 309°
2026-04-26 15:47 39.61738 -92.59553 33989 ft 414 kts 309°
2026-04-26 15:48 39.65701 -92.64985 33988 ft 414 kts 309°
2026-04-26 15:48 39.69659 -92.70421 33980 ft 414 kts 308°
2026-04-26 15:49 39.73618 -92.75869 33975 ft 415 kts 308°
2026-04-26 15:49 39.77573 -92.81319 33989 ft 414 kts 308°
2026-04-26 15:50 39.81524 -92.86776 33977 ft 415 kts 308°
2026-04-26 15:50 39.85475 -92.92241 33971 ft 415 kts 308°
2026-04-26 15:51 39.89430 -92.97722 33971 ft 415 kts 308°
2026-04-26 15:51 39.93351 -93.03167 33969 ft 415 kts 308°
2026-04-26 15:52 39.97324 -93.08691 33968 ft 415 kts 308°
2026-04-26 15:52 40.01240 -93.14146 33974 ft 415 kts 308°
2026-04-26 15:53 40.05182 -93.19649 33962 ft 415 kts 308°
2026-04-26 15:53 40.09117 -93.25151 33957 ft 414 kts 308°
2026-04-26 15:54 40.13044 -93.30653 33958 ft 414 kts 308°
2026-04-26 15:54 40.16968 -93.36161 33954 ft 414 kts 308°
2026-04-26 15:55 40.20890 -93.41676 33975 ft 414 kts 308°
2026-04-26 15:55 40.24806 -93.47192 33959 ft 414 kts 308°
2026-04-26 15:56 40.28721 -93.52714 33951 ft 413 kts 308°
2026-04-26 15:56 40.32627 -93.58237 33953 ft 413 kts 308°
2026-04-26 15:57 40.36526 -93.63761 33955 ft 413 kts 308°
2026-04-26 15:57 40.40420 -93.69288 33954 ft 413 kts 308°
2026-04-26 15:58 40.44313 -93.74823 33962 ft 413 kts 308°
2026-04-26 15:58 40.48176 -93.80324 33974 ft 413 kts 308°
2026-04-26 15:59 40.52064 -93.85872 33969 ft 412 kts 307°
2026-04-26 15:59 40.55943 -93.91416 33973 ft 412 kts 307°
2026-04-26 16:00 40.59495 -93.97239 33970 ft 403 kts 292°
2026-04-26 16:00 40.60453 -94.00660 33974 ft 397 kts 281°
2026-04-26 16:00 40.61065 -94.04197 33976 ft 397 kts 279°
2026-04-26 16:01 40.62187 -94.11314 33969 ft 397 kts 279°
2026-04-26 16:01 40.63319 -94.18447 33958 ft 398 kts 279°
2026-04-26 16:01 40.63898 -94.22017 33716 ft 401 kts 279°
2026-04-26 16:02 40.64487 -94.25626 32980 ft 402 kts 279°
2026-04-26 16:02 40.65077 -94.29222 32169 ft 402 kts 279°
2026-04-26 16:02 40.65667 -94.32818 31333 ft 402 kts 278°
2026-04-26 16:02 40.66058 -94.35193 30947 ft 399 kts 278°
2026-04-26 16:03 40.66839 -94.39953 30112 ft 396 kts 278°
2026-04-26 16:03 40.67415 -94.43485 29407 ft 394 kts 278°
2026-04-26 16:03 40.67989 -94.47010 28722 ft 394 kts 278°
2026-04-26 16:03 40.68562 -94.50538 28070 ft 393 kts 278°
2026-04-26 16:04 40.69131 -94.54047 27406 ft 390 kts 278°
2026-04-26 16:04 40.69693 -94.57516 26775 ft 385 kts 278°
2026-04-26 16:04 40.70249 -94.60953 26146 ft 382 kts 278°
2026-04-26 16:04 40.70799 -94.64363 25505 ft 379 kts 278°
2026-04-26 16:05 40.71343 -94.67747 24890 ft 376 kts 279°
2026-04-26 16:05 40.71883 -94.71116 24248 ft 375 kts 279°
2026-04-26 16:05 40.72420 -94.74471 23613 ft 374 kts 279°
2026-04-26 16:05 40.72955 -94.77819 22893 ft 372 kts 279°
2026-04-26 16:06 40.73479 -94.81102 22234 ft 369 kts 279°
2026-04-26 16:06 40.74004 -94.84399 21594 ft 366 kts 280°
2026-04-26 16:06 40.74526 -94.87673 20971 ft 364 kts 280°
2026-04-26 16:06 40.75042 -94.90925 20362 ft 361 kts 280°
2026-04-26 16:07 40.75552 -94.94149 19746 ft 358 kts 281°
2026-04-26 16:07 40.76060 -94.97360 19136 ft 357 kts 280°
2026-04-26 16:07 40.76564 -95.00558 18512 ft 356 kts 281°
2026-04-26 16:07 40.77067 -95.03750 17842 ft 355 kts 281°
2026-04-26 16:08 40.77585 -95.06924 17193 ft 353 kts 284°
2026-04-26 16:08 40.78181 -95.08961 16737 ft 353 kts 297°
2026-04-26 16:08 40.80069 -95.12439 15957 ft 351 kts 306°
2026-04-26 16:08 40.81604 -95.14946 15303 ft 351 kts 307°
2026-04-26 16:09 40.83149 -95.17444 14671 ft 350 kts 307°
2026-04-26 16:09 40.84682 -95.19936 14077 ft 349 kts 307°
2026-04-26 16:09 40.86201 -95.22428 13460 ft 348 kts 307°
2026-04-26 16:09 40.87709 -95.24921 12797 ft 347 kts 306°
2026-04-26 16:10 40.89184 -95.27370 12495 ft 329 kts 306°
2026-04-26 16:10 40.90560 -95.29657 12328 ft 307 kts 306°
2026-04-26 16:10 40.91858 -95.31823 11898 ft 297 kts 306°
2026-04-26 16:10 40.92707 -95.33243 11457 ft 298 kts 306°
2026-04-26 16:11 40.93998 -95.35407 10852 ft 302 kts 306°
2026-04-26 16:11 40.95298 -95.37586 10474 ft 300 kts 306°
2026-04-26 16:11 40.96588 -95.39745 10106 ft 299 kts 306°
2026-04-26 16:11 40.97874 -95.41902 9687 ft 299 kts 306°
2026-04-26 16:12 40.99160 -95.44058 9244 ft 298 kts 306°
2026-04-26 16:12 41.00442 -95.46209 8858 ft 296 kts 306°
2026-04-26 16:12 41.02985 -95.50483 8020 ft 295 kts 306°
2026-04-26 16:13 41.04231 -95.52580 7868 ft 282 kts 306°
2026-04-26 16:13 41.05420 -95.54580 7781 ft 271 kts 305°
2026-04-26 16:13 41.06558 -95.56495 7656 ft 257 kts 305°
2026-04-26 16:13 41.07644 -95.58327 7392 ft 250 kts 305°
2026-04-26 16:14 41.08714 -95.60135 6943 ft 249 kts 305°
2026-04-26 16:14 41.09782 -95.61942 6444 ft 250 kts 305°
2026-04-26 16:14 41.11923 -95.65563 5433 ft 248 kts 305°
2026-04-26 16:15 41.12984 -95.67356 5038 ft 244 kts 305°
2026-04-26 16:15 41.13994 -95.69064 4912 ft 228 kts 305°
2026-04-26 16:15 41.14964 -95.70704 4580 ft 224 kts 305°
2026-04-26 16:16 41.16834 -95.73875 3985 ft 213 kts 306°
2026-04-26 16:16 41.17813 -95.75306 3745 ft 206 kts 311°
2026-04-26 16:16 41.18790 -95.76671 3528 ft 204 kts 310°
2026-04-26 16:16 41.19770 -95.78048 3351 ft 206 kts 310°
2026-04-26 16:17 41.20768 -95.79456 3155 ft 215 kts 309°
2026-04-26 16:17 41.21823 -95.80915 3048 ft 222 kts 314°
2026-04-26 16:17 41.23045 -95.82156 3190 ft 222 kts 326°
2026-04-26 16:17 41.24321 -95.83339 3324 ft 226 kts 323°
2026-04-26 16:18 41.25594 -95.84570 3400 ft 227 kts 323°
2026-04-26 16:18 41.28169 -95.86985 3847 ft 227 kts 329°
2026-04-26 16:19 41.31021 -95.88704 5086 ft 225 kts 339°
2026-04-26 16:19 41.32614 -95.88983 5241 ft 244 kts 10°
2026-04-26 16:19 41.35138 -95.86492 4843 ft 223 kts 65°
2026-04-26 16:20 41.35752 -95.84642 4272 ft 214 kts 87°
2026-04-26 16:20 41.34577 -95.81447 4038 ft 201 kts 143°
2026-04-26 16:20 41.33459 -95.80306 3986 ft 204 kts 144°
2026-04-26 16:21 41.32321 -95.79172 3952 ft 205 kts 145°
2026-04-26 16:21 41.31178 -95.78040 3944 ft 205 kts 145°
2026-04-26 16:21 41.30036 -95.76911 3950 ft 205 kts 144°
2026-04-26 16:21 41.28905 -95.75791 3899 ft 197 kts 145°
2026-04-26 16:22 41.27847 -95.74767 3644 ft 182 kts 150°
2026-04-26 16:22 41.26635 -95.74440 3181 ft 184 kts 189°
2026-04-26 16:22 41.25504 -95.75309 2899 ft 198 kts 223°
2026-04-26 16:22 41.24615 -95.76719 2621 ft 199 kts 227°
2026-04-26 16:23 41.23739 -95.78158 2554 ft 201 kts 233°
2026-04-26 16:23 41.23216 -95.79851 2590 ft 192 kts 249°
2026-04-26 16:23 41.23044 -95.81537 2482 ft 191 kts 281°
2026-04-26 16:23 41.23798 -95.82925 2410 ft 190 kts 324°
2026-04-26 16:24 41.24911 -95.83924 2211 ft 195 kts 327°
2026-04-26 16:24 41.25994 -95.84940 2031 ft 186 kts 325°
2026-04-26 16:24 41.27033 -95.85949 1700 ft 185 kts 325°
2026-04-26 16:24 41.28068 -95.86907 1361 ft 179 kts 327°
2026-04-26 16:25 41.29043 -95.87846 1081 ft 166 kts 326°
2026-04-26 16:25 41.29921 -95.88679 989 ft 142 kts 324°
2026-04-26 16:25 41.30564 -95.89306 986 ft 76 kts 324°
2026-04-26 16:25 41.30911 -95.89629 987 ft 33 kts 324°
2026-04-26 16:26 41.30974 -95.89798 988 ft 23 kts 239°
2026-04-26 16:26 41.30883 -95.89964 986 ft 22 kts 235°
2026-04-26 16:26 41.30800 -95.90122 981 ft 16 kts 236°
2026-04-26 16:26 41.30740 -95.90238 989 ft 15 kts 230°
2026-04-26 16:27 41.30649 -95.90225 988 ft 14 kts 144°
2026-04-26 16:27 41.30571 -95.90147 991 ft 14 kts 140°
2026-04-26 16:27 41.30501 -95.90066 985 ft 13 kts 141°
2026-04-26 16:27 41.30429 -95.89994 986 ft 13 kts 143°
2026-04-26 16:28 41.30358 -95.89926 987 ft 12 kts 144°
2026-04-26 16:28 41.30289 -95.89860 990 ft 12 kts 144°
2026-04-26 16:28 41.30227 -95.89788 991 ft 12 kts 140°
2026-04-26 16:28 41.30163 -95.89730 989 ft 9 kts 177°
2026-04-26 16:29 41.30136 -95.89778 986 ft 2 kts 249°
2026-04-26 16:29 41.30133 -95.89791 984 ft 1 kts 249°
2026-04-26 16:29 41.30132 -95.89793 984 ft 0 kts 249°